Location: Alpha Ridge Park
(39.3209°N, 76.9128°W)
Time: 21:15:58
(UTC-04:00)

Transit 2A - All Passes

Search period start: 23 May 2019 00:00
Search period end: 02 June 2019 00:00
Orbit: 592 x 967 km, 66.7° (Epoch: 23 May)

Date Brightness Start Highest point End Pass type
(mag) Time Alt. Az. Time Alt. Az. Time Alt. Az.
23 May - 08:09:19 10° SSW 08:15:28 71° ESE 08:21:51 10° NNE daylight
23 May - 09:54:21 10° W 09:59:20 24° NW 10:04:24 10° N daylight
23 May - 15:18:20 10° NNE 15:19:09 10° NNE 15:19:57 10° NE daylight
23 May - 16:58:21 10° NNW 17:04:04 47° NE 17:09:14 10° SE daylight
23 May - 18:42:22 10° NW 18:46:54 24° WSW 18:51:05 10° SSW daylight
24 May - 07:35:32 10° S 07:41:26 50° ESE 07:47:35 10° NE daylight
24 May - 09:19:26 10° WSW 09:24:57 31° NW 09:30:36 10° NNE daylight
24 May - 16:24:25 10° NNW 16:29:47 34° NE 16:34:40 10° ESE daylight
24 May - 18:07:47 10° NW 18:13:01 36° WSW 18:17:46 10° S daylight
25 May - 07:01:59 10° S 07:07:29 35° ESE 07:13:11 10° NE daylight
25 May - 08:44:45 10° WSW 08:50:39 42° NW 08:56:42 10° NNE daylight
25 May - 10:35:04 10° NW 10:35:42 10° NNW 10:36:18 10° NNW daylight
25 May - 15:50:36 10° N 15:55:26 25° NE 15:59:54 10° E daylight
25 May - 17:33:25 10° NW 17:39:04 54° WSW 17:44:08 10° S daylight
26 May - 06:28:44 10° SSE 06:33:35 25° ESE 06:38:35 10° NE daylight
26 May - 08:10:17 10° SW 08:16:25 57° WNW 08:22:44 10° NNE daylight
26 May - 09:58:08 10° WNW 10:01:05 13° NW 10:04:02 10° N daylight
26 May - 15:16:53 10° N 15:21:00 19° NE 15:24:51 10° E daylight
26 May - 16:59:11 10° NNW 17:05:02 79° WSW 17:10:16 10° SSE daylight
27 May - 05:55:57 10° SE 05:59:45 17° ESE 06:03:36 10° ENE daylight
27 May - 07:36:00 10° SSW 07:42:14 79° WNW 07:48:41 10° NNE daylight
27 May - 09:22:28 10° W 09:26:33 17° NW 09:30:38 10° N daylight
27 May - 14:43:24 10° N 14:46:29 14° NE 14:49:26 10° ENE daylight
27 May - 16:25:04 10° NNW 16:30:56 72° ENE 16:36:10 10° SE daylight
27 May - 18:10:21 10° WNW 18:13:17 15° W 18:16:04 10° SW daylight
28 May - 05:24:26 10° ESE 05:25:57 11° E 05:27:29 10° E daylight
28 May - 07:01:56 10° SSW 07:08:08 76° ESE 07:14:33 10° NNE daylight
28 May - 08:47:13 10° W 08:52:05 23° NW 08:57:00 10° N daylight
28 May - 14:10:34 10° NNE 14:11:54 11° NNE 14:13:13 10° NE daylight
28 May - 15:51:01 10° NNW 15:56:45 50° NE 16:01:52 10° SE daylight
28 May - 17:35:13 10° NW 17:39:28 22° WSW 17:43:25 10° SSW daylight
29 May - 06:28:05 10° S 06:34:06 54° ESE 06:40:19 10° NE daylight
29 May - 08:12:15 10° WSW 08:17:42 30° NW 08:23:12 10° N daylight
29 May - 15:17:05 10° NNW 15:22:29 36° NE 15:27:22 10° ESE daylight
29 May - 17:00:34 10° NW 17:05:37 33° WSW 17:10:11 10° S daylight
30 May - 05:54:28 10° S 06:00:07 38° ESE 06:05:57 10° NE daylight
30 May - 07:37:31 10° WSW 07:43:22 39° NW 07:49:21 10° NNE daylight
30 May - 14:43:15 10° N 14:48:08 26° NE 14:52:38 10° ESE daylight
30 May - 16:26:09 10° NW 16:31:41 49° WSW 16:36:37 10° S daylight
31 May - 05:21:08 10° SSE 05:26:12 27° ESE 05:31:24 10° NE daylight
31 May - 07:03:00 10° SW 07:09:07 54° WNW 07:15:23 10° NNE daylight
31 May - 08:51:14 10° WNW 08:53:52 13° NW 08:56:29 10° NNW daylight
31 May - 14:09:31 10° N 14:13:42 20° NE 14:17:38 10° E daylight
31 May - 15:51:54 10° NNW 15:57:40 73° WSW 16:02:48 10° SSE daylight
01 Jun - 04:48:14 10° SE 04:52:21 19° ESE 04:56:32 10° ENE visible
01 Jun - 06:28:40 10° SW 06:34:56 74° WNW 06:41:21 10° NNE daylight
01 Jun - 08:15:26 10° WNW 08:19:19 16° NW 08:23:10 10° N daylight
01 Jun - 13:35:59 10° N 13:39:13 15° NE 13:42:18 10° ENE daylight
01 Jun - 15:17:45 10° NNW 15:23:35 78° ENE 15:28:45 10° SSE daylight
01 Jun - 17:03:27 10° WNW 17:05:49 13° W 17:08:07 10° SW daylight
